,,Stat5,,Stat1,,Stat2,,Stat3,,Stat4,,Wind1,,Wind1,
time,status,PA1M_AVG,status,PR1M_SUM,status,RH1M_AVG,status,SR1M_AVG,status,TA1M_AVG,status,W1dAve1m,status,W1sAve1m,
2002-05-29, 00:00:00,VALID,918.687,VALID,0,VALID,99.1737,VALID,-0.0679233,VALID,19.245,VALID,109,VALID,1.48145,
2002-05-29, 00:01:00,VALID,918.658,VALID,0,VALID,99.1648,VALID,-0.0169808,VALID,19.2482,VALID,120,VALID,1.375,
2002-05-29, 00:02:00,VALID,918.644,VALID,0,VALID,99.1724,VALID,-0.0509425,VALID,19.245,VALID,124,VALID,1.28929,
2002-05-29, 00:03:00,VALID,918.631,VALID,0,VALID,99.1648,VALID,0,VALID,19.2415,VALID,118,VALID,0.656641,
2002-05-29, 00:04:00,VALID,918.623,VALID,0,VALID,99.1763,VALID,-0.0169808,VALID,19.2383,VALID,131,VALID,0.831913,
2002-05-29, 00:05:00,VALID,918.613,VALID,0,VALID,99.1813,VALID,-0.0169808,VALID,19.2413,VALID,117,VALID,0.74442,
2002-05-29, 00:06:00,VALID,918.618,VALID,0,VALID,99.1775,VALID,-0.0169808,VALID,19.2284,VALID,121,VALID,1.07187,
2002-05-29, 00:07:00,VALID,918.615,VALID,0,VALID,99.1813,VALID,-0.0169808,VALID,19.2222,VALID,131,VALID,0.786161,
2002-05-29, 00:08:00,VALID,918.602,VALID,0,VALID,99.1902,VALID,0,VALID,19.2189,VALID,128,VALID,0.936351,
2002-05-29, 00:09:00,VALID,918.595,VALID,0,VALID,99.208,VALID,-0.0509425,VALID,19.2055,VALID,113,VALID,1.13867,
2002-05-29, 00:10:00,VALID,918.587,VALID,0,VALID,99.2411,VALID,0.101885,VALID,19.214,VALID,134,VALID,0.862453,
2002-05-29, 00:11:00,VALID,918.579,VALID,0,VALID,99.264,VALID,0.0679233,VALID,19.2205,VALID,133,VALID,1.19018,
2002-05-29, 00:12:00,VALID,918.564,VALID,0,VALID,99.2665,VALID,0.101885,VALID,19.2306,VALID,119,VALID,0.933203,
2002-05-29, 00:13:00,VALID,918.564,VALID,0,VALID,99.278,VALID,0.0849042,VALID,19.2175,VALID,126,VALID,0.735045,
2002-05-29, 00:14:00,VALID,918.546,VALID,0,VALID,99.2742,VALID,0.0849042,VALID,19.2145,VALID,119,VALID,0.905561,
2002-05-29, 00:15:00,VALID,918.538,VALID,0,VALID,99.2831,VALID,0.101885,VALID,19.1879,VALID,137,VALID,0.947461,
2002-05-29, 00:16:00,VALID,918.54,VALID,0,VALID,99.2793,VALID,0.101885,VALID,19.2016,VALID,138,VALID,1.31889,
2002-05-29, 00:17:00,VALID,918.533,VALID,0,VALID,99.2767,VALID,0.101885,VALID,19.2013,VALID,139,VALID,1.21987,
2002-05-29, 00:18:00,VALID,918.513,VALID,0,VALID,99.278,VALID,0.0849042,VALID,19.2046,VALID,141,VALID,1.26406,
2002-05-29, 00:19:00,VALID,918.506,VALID,0,VALID,99.2818,VALID,0.0849042,VALID,19.1949,VALID,141,VALID,1.00915,
2002-05-29, 00:20:00,VALID,918.513,VALID,0,VALID,99.2742,VALID,0.101885,VALID,19.1819,VALID,142,VALID,1.05262,
2002-05-29, 00:21:00,VALID,918.489,VALID,0,VALID,99.2793,VALID,0.0849042,VALID,19.179,VALID,141,VALID,0.827344,
2002-05-29, 00:22:00,VALID,918.481,VALID,0,VALID,99.2754,VALID,0.0679233,VALID,19.169,VALID,132,VALID,0.869792,
2002-05-29, 00:23:00,VALID,918.467,VALID,0,VALID,99.2653,VALID,0.101885,VALID,19.1497,VALID,112,VALID,0.946652,
2002-05-29, 00:24:00,VALID,918.459,VALID,0,VALID,99.2398,VALID,0.0509425,VALID,19.1245,VALID,104,VALID,0.90625,
2002-05-29, 00:25:00,VALID,918.449,VALID,0,VALID,99.2297,VALID,-0.0169808,VALID,19.083,VALID,102,VALID,1.03326,
2002-05-29, 00:26:00,VALID,918.43,VALID,0,VALID,99.2322,VALID,0,VALID,19.0607,VALID,92,VALID,1.00046,
2002-05-29, 00:27:00,VALID,918.411,VALID,0,VALID,99.2424,VALID,-0.0169808,VALID,19.0535,VALID,96,VALID,0.951758,
2002-05-29, 00:28:00,VALID,918.406,VALID,0,VALID,99.2437,VALID,0,VALID,19.0637,VALID,97,VALID,0.812973,
2002-05-29, 00:29:00,VALID,918.382,VALID,0,VALID,99.2322,VALID,0,VALID,19.0542,VALID,96,VALID,0.761607,
2002-05-29, 00:30:00,VALID,918.38,VALID,0,VALID,99.2449,VALID,-0.0169808,VALID,19.0669,VALID,85,VALID,0.621094,
2002-05-29, 00:31:00,VALID,918.378,VALID,0,VALID,99.2386,VALID,0.0169808,VALID,19.0604,VALID,53,VALID,0.523661,
2002-05-29, 00:32:00,VALID,918.372,VALID,0,VALID,99.2055,VALID,0.0339617,VALID,19.0217,VALID,52,VALID,0.591912,
2002-05-29, 00:33:00,VALID,918.366,VALID,0,VALID,99.1813,VALID,0,VALID,18.9705,VALID,52,VALID,0.781641,
2002-05-29, 00:34:00,VALID,918.368,VALID,0,VALID,99.1763,VALID,0,VALID,18.9382,VALID,61,VALID,0.867898,
2002-05-29, 00:35:00,VALID,918.35,VALID,0,VALID,99.1839,VALID,0,VALID,18.9213,VALID,71,VALID,1.01161,
2002-05-29, 00:36:00,VALID,918.33,VALID,0,VALID,99.1877,VALID,0,VALID,18.9225,VALID,74,VALID,1.10137,
2002-05-29, 00:37:00,VALID,918.31,VALID,0,VALID,99.1864,VALID,0,VALID,18.9059,VALID,77,VALID,0.928348,
2002-05-29, 00:38:00,VALID,918.298,VALID,0,VALID,99.1928,VALID,-0.0509425,VALID,18.8932,VALID,87,VALID,1.3079,
2002-05-29, 00:39:00,VALID,918.275,VALID,0,VALID,99.1979,VALID,0,VALID,18.883,VALID,86,VALID,0.986914,
2002-05-29, 00:40:00,VALID,918.259,VALID,0,VALID,99.1928,VALID,0,VALID,18.8671,VALID,89,VALID,0.72964,
2002-05-29, 00:41:00,VALID,918.245,VALID,0,VALID,99.2093,VALID,0,VALID,18.8607,VALID,92,VALID,0.764955,
2002-05-29, 00:42:00,VALID,918.238,VALID,0,VALID,99.2271,VALID,0,VALID,18.8701,VALID,81,VALID,0.732813,
2002-05-29, 00:43:00,VALID,918.219,VALID,0,VALID,99.2386,VALID,-0.0169808,VALID,18.8833,VALID,80,VALID,0.608036,
2002-05-29, 00:44:00,VALID,918.223,VALID,0,VALID,99.2297,VALID,0,VALID,18.8766,VALID,80,VALID,0.355699,
2002-05-29, 00:45:00,VALID,918.212,VALID,0,VALID,99.2233,VALID,0,VALID,18.8733,VALID,74,VALID,0.574609,
2002-05-29, 00:46:00,VALID,918.199,VALID,0,VALID,99.2271,VALID,0,VALID,18.8577,VALID,67,VALID,0.799953,
2002-05-29, 00:47:00,VALID,918.208,VALID,0,VALID,99.2411,VALID,0,VALID,18.8542,VALID,64,VALID,0.714955,
2002-05-29, 00:48:00,VALID,918.203,VALID,0,VALID,99.2437,VALID,0,VALID,18.8443,VALID,65,VALID,0.730859,
2002-05-29, 00:49:00,VALID,918.208,VALID,0,VALID,99.2754,VALID,-0.0169808,VALID,18.88,VALID,68,VALID,0.504687,
2002-05-29, 00:50:00,VALID,918.196,VALID,0,VALID,99.2882,VALID,-0.0169808,VALID,18.9029,VALID,57,VALID,0.392923,
2002-05-29, 00:51:00,VALID,918.185,VALID,0,VALID,99.2793,VALID,0,VALID,18.8863,VALID,60,VALID,0.780469,
2002-05-29, 00:52:00,VALID,918.189,VALID,0,VALID,99.3047,VALID,-0.0339617,VALID,18.919,VALID,65,VALID,0.810843,
2002-05-29, 00:53:00,VALID,918.169,VALID,0,VALID,99.2894,VALID,-0.0169808,VALID,18.9188,VALID,65,VALID,0.601563,
2002-05-29, 00:54:00,VALID,918.135,VALID,0,VALID,99.2411,VALID,-0.0169808,VALID,18.8805,VALID,63,VALID,0.554883,
2002-05-29, 00:55:00,VALID,918.123,VALID,0,VALID,99.2449,VALID,0,VALID,18.857,VALID,60,VALID,0.76808,
2002-05-29, 00:56:00,VALID,918.089,VALID,0,VALID,99.2398,VALID,0.0169808,VALID,18.8674,VALID,58,VALID,0.967831,
2002-05-29, 00:57:00,VALID,918.074,VALID,0,VALID,99.2589,VALID,0.0169808,VALID,18.8803,VALID,62,VALID,1.01094,
2002-05-29, 00:58:00,VALID,918.045,VALID,0,VALID,99.2856,VALID,0,VALID,18.9093,VALID,80,VALID,1.11955,
2002-05-29, 00:59:00,VALID,918.054,VALID,0,VALID,99.3009,VALID,0,VALID,18.922,VALID,89,VALID,0.952902,
2002-05-29, 01:00:00,VALID,918.031,VALID,0,VALID,99.2882,VALID,0,VALID,18.9287,VALID,98,VALID,1.0791,
2002-05-29, 01:01:00,VALID,918.031,VALID,0,VALID,99.2882,VALID,0,VALID,18.9352,VALID,100,VALID,0.991518,
2002-05-29, 01:02:00,VALID,918.007,VALID,0,VALID,99.2729,VALID,0,VALID,18.9449,VALID,96,VALID,0.965993,
2002-05-29, 01:03:00,VALID,917.997,VALID,0,VALID,99.2411,VALID,0,VALID,18.9315,VALID,94,VALID,0.892969,
2002-05-29, 01:04:00,VALID,917.981,VALID,0,VALID,99.2284,VALID,-0.0169808,VALID,18.9059,VALID,91,VALID,0.892756,
2002-05-29, 01:05:00,VALID,917.957,VALID,0,VALID,99.2271,VALID,-0.0169808,VALID,18.9026,VALID,90,VALID,0.86808,
2002-05-29, 01:06:00,VALID,917.946,VALID,0,VALID,99.2716,VALID,-0.0169808,VALID,18.9352,VALID,95,VALID,0.798242,
2002-05-29, 01:07:00,VALID,917.925,VALID,0,VALID,99.2754,VALID,-0.0169808,VALID,18.9613,VALID,103,VALID,0.873438,
2002-05-29, 01:08:00,VALID,917.907,VALID,0,VALID,99.2729,VALID,0,VALID,18.9767,VALID,117,VALID,0.819853,
2002-05-29, 01:09:00,VALID,917.901,VALID,0,VALID,99.2818,VALID,-0.0169808,VALID,18.9901,VALID,113,VALID,0.853906,
2002-05-29, 01:10:00,VALID,917.893,VALID,0,VALID,99.2856,VALID,-0.0169808,VALID,18.9936,VALID,112,VALID,0.768229,
2002-05-29, 01:11:00,VALID,917.897,VALID,0,VALID,99.2704,VALID,0,VALID,19.0095,VALID,115,VALID,0.827009,
2002-05-29, 01:12:00,VALID,917.898,VALID,0,VALID,99.2742,VALID,-0.0169808,VALID,19.0095,VALID,110,VALID,0.719922,
2002-05-29, 01:13:00,VALID,917.895,VALID,0,VALID,99.2678,VALID,0,VALID,19.0129,VALID,92,VALID,0.584375,
2002-05-29, 01:14:00,VALID,917.886,VALID,0,VALID,99.2462,VALID,0.0169808,VALID,18.9995,VALID,92,VALID,0.487132,
2002-05-29, 01:15:00,VALID,917.882,VALID,0,VALID,99.2144,VALID,0,VALID,18.9774,VALID,89,VALID,0.554492,
2002-05-29, 01:16:00,VALID,917.862,VALID,0,VALID,99.1839,VALID,0,VALID,18.922,VALID,82,VALID,0.562737,
2002-05-29, 01:17:00,VALID,917.814,VALID,0,VALID,99.189,VALID,0,VALID,18.8897,VALID,65,VALID,0.542535,
2002-05-29, 01:18:00,VALID,917.814,VALID,0,VALID,99.1864,VALID,0,VALID,18.8639,VALID,44,VALID,0.729688,
2002-05-29, 01:19:00,VALID,917.781,VALID,0,VALID,99.1368,VALID,0,VALID,18.7928,VALID,18,VALID,0.722991,
2002-05-29, 01:20:00,VALID,917.787,VALID,0,VALID,99.1356,VALID,0,VALID,18.7476,VALID,19,VALID,0.710478,
2002-05-29, 01:21:00,VALID,917.771,VALID,0,VALID,99.1585,VALID,-0.0169808,VALID,18.7282,VALID,41,VALID,0.581445,
2002-05-29, 01:22:00,VALID,917.758,VALID,0,VALID,99.2258,VALID,0.0169808,VALID,18.764,VALID,87,VALID,0.664063,
2002-05-29, 01:23:00,VALID,917.753,VALID,0,VALID,99.2754,VALID,-0.0339617,VALID,18.7991,VALID,96,VALID,0.780804,
2002-05-29, 01:24:00,VALID,917.726,VALID,0,VALID,99.3021,VALID,-0.0169808,VALID,18.8348,VALID,100,VALID,0.774023,
2002-05-29, 01:25:00,VALID,917.704,VALID,0,VALID,99.2856,VALID,0,VALID,18.8251,VALID,106,VALID,0.821205,
2002-05-29, 01:26:00,VALID,917.703,VALID,0,VALID,99.2767,VALID,-0.0169808,VALID,18.8219,VALID,108,VALID,0.596048,
2002-05-29, 01:27:00,VALID,917.698,VALID,0,VALID,99.2767,VALID,0,VALID,18.8164,VALID,109,VALID,0.494531,
2002-05-29, 01:28:00,VALID,917.681,VALID,0,VALID,99.2576,VALID,-0.0169808,VALID,18.7901,VALID,115,VALID,0.460938,
2002-05-29, 01:29:00,VALID,917.676,VALID,0,VALID,99.2297,VALID,0,VALID,18.7476,VALID,97,VALID,0.511607,
2002-05-29, 01:30:00,VALID,917.676,VALID,0,VALID,99.1585,VALID,0,VALID,18.6445,VALID,81,VALID,0.61875,
2002-05-29, 01:31:00,VALID,917.673,VALID,0,VALID,99.0898,VALID,0,VALID,18.567,VALID,75,VALID,0.486384,
2002-05-29, 01:32:00,VALID,917.663,VALID,0,VALID,99.0008,VALID,0,VALID,18.457,VALID,70,VALID,0.488051,
2002-05-29, 01:33:00,VALID,917.666,VALID,0,VALID,99.1572,VALID,-0.0169808,VALID,18.4448,VALID,84,VALID,0.577148,
2002-05-29, 01:34:00,VALID,917.652,VALID,0,VALID,99.2691,VALID,-0.0169808,VALID,18.5158,VALID,95,VALID,0.794981,
2002-05-29, 01:35:00,VALID,917.655,VALID,0,VALID,99.3403,VALID,0,VALID,18.5891,VALID,98,VALID,0.723437,
2002-05-29, 01:36:00,VALID,917.639,VALID,0,VALID,99.3759,VALID,0,VALID,18.6577,VALID,108,VALID,0.932617,
2002-05-29, 01:37:00,VALID,917.618,VALID,0,VALID,99.3988,VALID,0,VALID,18.7061,VALID,108,VALID,0.969196,
2002-05-29, 01:38:00,VALID,917.615,VALID,0,VALID,99.4064,VALID,0,VALID,18.7677,VALID,94,VALID,0.872932,
2002-05-29, 01:39:00,VALID,917.609,VALID,0,VALID,99.409,VALID,0,VALID,18.7839,VALID,97,VALID,0.906641,
2002-05-29, 01:40:00,VALID,917.607,VALID,0,VALID,99.3797,VALID,0,VALID,18.7839,VALID,96,VALID,0.72964,
2002-05-29, 01:41:00,VALID,917.596,VALID,0,VALID,99.3759,VALID,0,VALID,18.7675,VALID,98,VALID,0.796205,
2002-05-29, 01:42:00,VALID,917.602,VALID,0,VALID,99.3873,VALID,-0.0169808,VALID,18.7871,VALID,109,VALID,1.0916,
2002-05-29, 01:43:00,VALID,917.606,VALID,0,VALID,99.381,VALID,0,VALID,18.8097,VALID,115,VALID,1.04353,
2002-05-29, 01:44:00,VALID,917.591,VALID,0,VALID,99.3746,VALID,-0.0339617,VALID,18.8062,VALID,117,VALID,1.23667,
2002-05-29, 01:45:00,VALID,917.59,VALID,0,VALID,99.367,VALID,-0.0339617,VALID,18.7868,VALID,123,VALID,1.19316,
2002-05-29, 01:46:00,VALID,917.583,VALID,0,VALID,99.3594,VALID,0,VALID,18.7836,VALID,122,VALID,1.19366,
2002-05-29, 01:47:00,VALID,917.589,VALID,0,VALID,99.3594,VALID,-0.0339617,VALID,18.7776,VALID,117,VALID,1.05982,
2002-05-29, 01:48:00,VALID,917.607,VALID,0,VALID,99.353,VALID,0,VALID,18.7481,VALID,126,VALID,0.751758,
2002-05-29, 01:49:00,VALID,917.622,VALID,0,VALID,99.3428,VALID,0,VALID,18.7223,VALID,121,VALID,0.629464,
2002-05-29, 01:50:00,VALID,917.627,VALID,0,VALID,99.3708,VALID,-0.0169808,VALID,18.7188,VALID,130,VALID,0.743336,
2002-05-29, 01:51:00,VALID,917.64,VALID,0,VALID,99.3823,VALID,-0.0169808,VALID,18.7513,VALID,115,VALID,0.988281,
2002-05-29, 01:52:00,VALID,917.636,VALID,0,VALID,99.381,VALID,-0.0169808,VALID,18.7548,VALID,120,VALID,0.663352,
2002-05-29, 01:53:00,VALID,917.661,VALID,0,VALID,99.3912,VALID,-0.0339617,VALID,18.7612,VALID,128,VALID,0.730804,
2002-05-29, 01:54:00,VALID,917.666,VALID,0,VALID,99.4128,VALID,-0.0169808,VALID,18.7968,VALID,121,VALID,0.79043,
2002-05-29, 01:55:00,VALID,917.665,VALID,0,VALID,99.414,VALID,-0.0169808,VALID,18.8095,VALID,125,VALID,0.730134,
2002-05-29, 01:56:00,VALID,917.653,VALID,0,VALID,99.4217,VALID,-0.0169808,VALID,18.836,VALID,125,VALID,0.869485,
2002-05-29, 01:57:00,VALID,917.653,VALID,0,VALID,99.4064,VALID,0,VALID,18.8286,VALID,124,VALID,0.734961,
2002-05-29, 01:58:00,VALID,917.638,VALID,0,VALID,99.4128,VALID,-0.0339617,VALID,18.8554,VALID,125,VALID,0.933712,
2002-05-29, 01:59:00,VALID,917.626,VALID,0,VALID,99.4064,VALID,-0.0169808,VALID,18.8614,VALID,127,VALID,0.91942,
2002-05-29, 02:00:00,VALID,917.612,VALID,0,VALID,99.3975,VALID,-0.0339617,VALID,18.8713,VALID,126,VALID,0.92832,
2002-05-29, 02:01:00,VALID,917.613,VALID,0,VALID,99.3873,VALID,-0.0509425,VALID,18.8807,VALID,131,VALID,0.630804,
2002-05-29, 02:02:00,VALID,917.61,VALID,0,VALID,99.3823,VALID,-0.0339617,VALID,18.8971,VALID,121,VALID,0.685662,
2002-05-29, 02:03:00,VALID,917.6,VALID,0,VALID,99.3772,VALID,-0.0509425,VALID,18.8907,VALID,119,VALID,0.552344,
2002-05-29, 02:04:00,VALID,917.589,VALID,0,VALID,99.3632,VALID,-0.0339617,VALID,18.8939,VALID,122,VALID,0.665956,
2002-05-29, 02:05:00,VALID,917.581,VALID,0,VALID,99.3479,VALID,-0.0339617,VALID,18.9071,VALID,128,VALID,0.70625,
2002-05-29, 02:06:00,VALID,917.578,VALID,0,VALID,99.353,VALID,0,VALID,18.8997,VALID,140,VALID,0.617773,
2002-05-29, 02:07:00,VALID,917.564,VALID,0,VALID,99.3365,VALID,-0.0169808,VALID,18.8997,VALID,140,VALID,0.616741,
2002-05-29, 02:08:00,VALID,917.558,VALID,0,VALID,99.3161,VALID,-0.0339617,VALID,18.9068,VALID,145,VALID,0.61466,
2002-05-29, 02:09:00,VALID,917.56,VALID,0,VALID,99.3098,VALID,-0.0509425,VALID,18.9031,VALID,140,VALID,0.612891,
2002-05-29, 02:10:00,VALID,917.555,VALID,0,VALID,99.2894,VALID,-0.0339617,VALID,18.8937,VALID,138,VALID,0.635653,
2002-05-29, 02:11:00,VALID,917.554,VALID,0,VALID,99.2767,VALID,-0.0509425,VALID,18.8907,VALID,135,VALID,0.656027,
2002-05-29, 02:12:00,VALID,917.552,VALID,0,VALID,99.2627,VALID,-0.0509425,VALID,18.8715,VALID,123,VALID,0.600391,
2002-05-29, 02:13:00,VALID,917.555,VALID,0,VALID,99.2487,VALID,-0.0169808,VALID,18.8517,VALID,111,VALID,0.595982,
2002-05-29, 02:14:00,VALID,917.56,VALID,0,VALID,99.2246,VALID,-0.0169808,VALID,18.8191,VALID,108,VALID,0.541131,
2002-05-29, 02:15:00,VALID,917.564,VALID,0,VALID,99.1839,VALID,0,VALID,18.7802,VALID,107,VALID,0.429102,
2002-05-29, 02:16:00,VALID,917.568,VALID,0,VALID,99.1864,VALID,-0.0339617,VALID,18.7709,VALID,107,VALID,0.517045,
2002-05-29, 02:17:00,VALID,917.57,VALID,0,VALID,99.203,VALID,-0.0339617,VALID,18.7652,VALID,115,VALID,0.27567,
2002-05-29, 02:18:00,VALID,917.567,VALID,0,VALID,99.1877,VALID,0,VALID,18.7419,VALID,116,VALID,0.170508,
2002-05-29, 02:19:00,VALID,917.566,VALID,0,VALID,99.1292,VALID,0,VALID,18.6798,VALID,117,VALID,0.359375,
2002-05-29, 02:20:00,VALID,917.544,VALID,0,VALID,99.1267,VALID,0,VALID,18.6348,VALID,113,VALID,0.622013,
2002-05-29, 02:21:00,VALID,917.516,VALID,0,VALID,99.1737,VALID,-0.0339617,VALID,18.6256,VALID,111,VALID,0.527148,
2002-05-29, 02:22:00,VALID,917.502,VALID,0,VALID,99.203,VALID,-0.0169808,VALID,18.6295,VALID,107,VALID,0.931581,
2002-05-29, 02:23:00,VALID,917.473,VALID,0,VALID,99.2411,VALID,-0.0339617,VALID,18.6286,VALID,113,VALID,1.03527,
2002-05-29, 02:24:00,VALID,917.445,VALID,0,VALID,99.2805,VALID,-0.0339617,VALID,18.6611,VALID,116,VALID,1.09844,
2002-05-29, 02:25:00,VALID,917.421,VALID,0,VALID,99.3021,VALID,-0.0169808,VALID,18.6805,VALID,119,VALID,1.27098,
2002-05-29, 02:26:00,VALID,917.39,VALID,0,VALID,99.2945,VALID,-0.0169808,VALID,18.6865,VALID,111,VALID,1.30423,
2002-05-29, 02:27:00,VALID,917.367,VALID,0,VALID,99.292,VALID,0,VALID,18.6964,VALID,113,VALID,1.23633,
2002-05-29, 02:28:00,VALID,917.345,VALID,0,VALID,99.2894,VALID,0,VALID,18.7091,VALID,113,VALID,1.56013,
2002-05-29, 02:29:00,VALID,917.343,VALID,0,VALID,99.2767,VALID,-0.0169808,VALID,18.7056,VALID,113,VALID,1.64219,
2002-05-29, 02:30:00,VALID,917.323,VALID,0,VALID,99.2754,VALID,-0.0169808,VALID,18.7225,VALID,116,VALID,1.5,
2002-05-29, 02:31:00,VALID,917.316,VALID,0,VALID,99.2615,VALID,-0.0169808,VALID,18.7193,VALID,116,VALID,1.43036,
2002-05-29, 02:32:00,VALID,917.301,VALID,0,VALID,99.2551,VALID,-0.0169808,VALID,18.7128,VALID,118,VALID,1.34214,
2002-05-29, 02:33:00,VALID,917.295,VALID,0,VALID,99.2411,VALID,-0.0509425,VALID,18.7029,VALID,118,VALID,1.35352,
2002-05-29, 02:34:00,VALID,917.284,VALID,0,VALID,99.2208,VALID,0,VALID,18.6962,VALID,118,VALID,1.08949,
2002-05-29, 02:35:00,VALID,917.282,VALID,0,VALID,99.2169,VALID,-0.0169808,VALID,18.6775,VALID,119,VALID,0.943527,
2002-05-29, 02:36:00,VALID,917.281,VALID,0,VALID,99.2131,VALID,0,VALID,18.6708,VALID,119,VALID,0.873438,
2002-05-29, 02:37:00,VALID,917.274,VALID,0,VALID,99.1953,VALID,-0.0339617,VALID,18.6547,VALID,113,VALID,0.827902,
2002-05-29, 02:38:00,VALID,917.274,VALID,0,VALID,99.2157,VALID,-0.0169808,VALID,18.642,VALID,126,VALID,0.779182,
2002-05-29, 02:39:00,VALID,917.273,VALID,0,VALID,99.2169,VALID,0,VALID,18.6321,VALID,116,VALID,0.860156,
2002-05-29, 02:40:00,VALID,917.264,VALID,0,VALID,99.2284,VALID,-0.0509425,VALID,18.6122,VALID,120,VALID,1.12192,
2002-05-29, 02:41:00,VALID,917.26,VALID,0,VALID,99.2182,VALID,0,VALID,18.6154,VALID,121,VALID,0.989732,
2002-05-29, 02:42:00,VALID,917.253,VALID,0,VALID,99.2437,VALID,-0.0509425,VALID,18.6224,VALID,122,VALID,0.693359,
2002-05-29, 02:43:00,VALID,917.239,VALID,0,VALID,99.2411,VALID,-0.0339617,VALID,18.6067,VALID,126,VALID,0.724107,
2002-05-29, 02:44:00,VALID,917.238,VALID,0,VALID,99.2475,VALID,0,VALID,18.5871,VALID,123,VALID,0.805607,
2002-05-29, 02:45:00,VALID,917.23,VALID,0,VALID,99.25,VALID,0.0169808,VALID,18.567,VALID,129,VALID,0.850586,
2002-05-29, 02:46:00,VALID,917.239,VALID,0,VALID,99.2602,VALID,-0.0339617,VALID,18.5573,VALID,134,VALID,0.838542,
2002-05-29, 02:47:00,VALID,917.243,VALID,0,VALID,99.2767,VALID,0,VALID,18.5451,VALID,130,VALID,0.839286,
2002-05-29, 02:48:00,VALID,917.257,VALID,0,VALID,99.2971,VALID,-0.0339617,VALID,18.5386,VALID,132,VALID,0.752734,
2002-05-29, 02:49:00,VALID,917.254,VALID,0,VALID,99.3199,VALID,-0.0169808,VALID,18.5416,VALID,119,VALID,0.9,
2002-05-29, 02:50:00,VALID,917.242,VALID,0,VALID,99.3657,VALID,0,VALID,18.564,VALID,127,VALID,0.787454,
2002-05-29, 02:51:00,VALID,917.238,VALID,0,VALID,99.3975,VALID,-0.0339617,VALID,18.5968,VALID,122,VALID,0.789453,
2002-05-29, 02:52:00,VALID,917.222,VALID,0,VALID,99.4064,VALID,0,VALID,18.6291,VALID,136,VALID,0.6759,
2002-05-29, 02:53:00,VALID,917.217,VALID,0,VALID,99.4064,VALID,-0.0509425,VALID,18.6388,VALID,135,VALID,0.635938,
2002-05-29, 02:54:00,VALID,917.216,VALID,0,VALID,99.4013,VALID,-0.0169808,VALID,18.6519,VALID,139,VALID,0.747656,
2002-05-29, 02:55:00,VALID,917.202,VALID,0,VALID,99.3988,VALID,-0.0169808,VALID,18.6385,VALID,146,VALID,0.808259,
2002-05-29, 02:56:00,VALID,917.208,VALID,0,VALID,99.4039,VALID,0,VALID,18.6385,VALID,142,VALID,0.696691,
2002-05-29, 02:57:00,VALID,917.2,VALID,0,VALID,99.3924,VALID,-0.0169808,VALID,18.6288,VALID,144,VALID,0.633594,
2002-05-29, 02:58:00,VALID,917.198,VALID,0,VALID,99.3962,VALID,0,VALID,18.6191,VALID,137,VALID,0.54072,
2002-05-29, 02:59:00,VALID,917.215,VALID,0,VALID,99.3924,VALID,-0.0169808,VALID,18.6224,VALID,134,VALID,0.443304,
2002-05-29, 03:00:00,VALID,917.223,VALID,0,VALID,99.3886,VALID,0,VALID,18.6226,VALID,113,VALID,0.433203,
2002-05-29, 03:01:00,VALID,917.228,VALID,0,VALID,99.3835,VALID,0,VALID,18.6129,VALID,110,VALID,0.717188,
2002-05-29, 03:02:00,VALID,917.226,VALID,0,VALID,99.395,VALID,-0.0169808,VALID,18.603,VALID,118,VALID,0.830423,
2002-05-29, 03:03:00,VALID,917.246,VALID,0,VALID,99.3835,VALID,-0.0169808,VALID,18.6097,VALID,117,VALID,0.934375,
2002-05-29, 03:04:00,VALID,917.25,VALID,0,VALID,99.4039,VALID,-0.0169808,VALID,18.6355,VALID,117,VALID,1.11056,
2002-05-29, 03:05:00,VALID,917.245,VALID,0,VALID,99.4166,VALID,-0.0169808,VALID,18.6549,VALID,119,VALID,1.26295,
2002-05-29, 03:06:00,VALID,917.254,VALID,0,VALID,99.4013,VALID,-0.0339617,VALID,18.6713,VALID,120,VALID,1.16367,
2002-05-29, 03:07:00,VALID,917.254,VALID,0,VALID,99.4064,VALID,-0.0169808,VALID,18.6681,VALID,118,VALID,1.16741,
2002-05-29, 03:08:00,VALID,917.254,VALID,0,VALID,99.3823,VALID,-0.0679233,VALID,18.6681,VALID,110,VALID,1.11305,
2002-05-29, 03:09:00,VALID,917.263,VALID,0,VALID,99.3632,VALID,-0.0509425,VALID,18.6581,VALID,113,VALID,1.17559,
2002-05-29, 03:10:00,VALID,917.268,VALID,0,VALID,99.3517,VALID,-0.0339617,VALID,18.6544,VALID,122,VALID,1.03409,
2002-05-29, 03:11:00,VALID,917.26,VALID,0,VALID,99.3517,VALID,-0.0509425,VALID,18.6484,VALID,123,VALID,0.927679,
2002-05-29, 03:12:00,VALID,917.272,VALID,0,VALID,99.3301,VALID,0,VALID,18.6482,VALID,133,VALID,0.721875,
2002-05-29, 03:13:00,VALID,917.269,VALID,0,VALID,99.3339,VALID,-0.0339617,VALID,18.6683,VALID,121,VALID,0.82433,
2002-05-29, 03:14:01,VALID,917.253,VALID,0,VALID,99.325,VALID,-0.0339617,VALID,18.681,VALID,126,VALID,0.795726,
2002-05-29, 03:15:00,VALID,917.25,VALID,0,VALID,99.311,VALID,-0.0339617,VALID,18.6713,VALID,118,VALID,0.734961,
2002-05-29, 03:16:00,VALID,917.24,VALID,0,VALID,99.2996,VALID,-0.0169808,VALID,18.6713,VALID,122,VALID,0.866951,
2002-05-29, 03:17:00,VALID,917.218,VALID,0,VALID,99.2945,VALID,-0.0169808,VALID,18.6418,VALID,113,VALID,0.899777,
2002-05-29, 03:18:00,VALID,917.214,VALID,0,VALID,99.2729,VALID,-0.0169808,VALID,18.6321,VALID,106,VALID,0.858789,
2002-05-29, 03:19:00,VALID,917.185,VALID,0,VALID,99.2538,VALID,0,VALID,18.5998,VALID,102,VALID,0.989732,
2002-05-29, 03:20:01,VALID,917.186,VALID,0,VALID,99.2513,VALID,-0.0339617,VALID,18.5836,VALID,106,VALID,1.24494,
2002-05-29, 03:21:00,VALID,917.178,VALID,0,VALID,99.2704,VALID,-0.0339617,VALID,18.5968,VALID,107,VALID,1.25742,
2002-05-29, 03:22:00,VALID,917.178,VALID,0,VALID,99.2843,VALID,-0.0339617,VALID,18.606,VALID,110,VALID,1.31013,
2002-05-29, 03:23:00,VALID,917.186,VALID,0,VALID,99.2907,VALID,-0.0339617,VALID,18.6328,VALID,108,VALID,1.11652,
2002-05-29, 03:24:00,VALID,917.193,VALID,0,VALID,99.306,VALID,-0.0509425,VALID,18.6487,VALID,105,VALID,1.20898,
2002-05-29, 03:25:00,VALID,917.202,VALID,0,VALID,99.2958,VALID,-0.0169808,VALID,18.6683,VALID,92,VALID,0.990402,
2002-05-29, 03:26:01,VALID,917.208,VALID,0,VALID,99.2793,VALID,-0.0679233,VALID,18.6542,VALID,93,VALID,1.0926,
2002-05-29, 03:27:00,VALID,917.222,VALID,0,VALID,99.2767,VALID,0,VALID,18.6674,VALID,94,VALID,0.913672,
2002-05-29, 03:28:00,VALID,917.224,VALID,0,VALID,99.2487,VALID,-0.0339617,VALID,18.6743,VALID,105,VALID,0.755682,
2002-05-29, 03:29:00,VALID,917.223,VALID,0,VALID,99.2246,VALID,-0.0339617,VALID,18.6353,VALID,107,VALID,0.562054,
2002-05-29, 03:30:00,VALID,917.209,VALID,0,VALID,99.1826,VALID,-0.0339617,VALID,18.6132,VALID,105,VALID,0.526758,
2002-05-29, 03:31:00,VALID,917.189,VALID,0,VALID,99.1737,VALID,-0.0339617,VALID,18.5744,VALID,88,VALID,0.78817,
2002-05-29, 03:32:01,VALID,917.176,VALID,0,VALID,99.1661,VALID,-0.0169808,VALID,18.5516,VALID,91,VALID,0.923254,
2002-05-29, 03:33:00,VALID,917.175,VALID,0,VALID,99.1839,VALID,-0.0509425,VALID,18.5287,VALID,77,VALID,0.85957,
2002-05-29, 03:34:00,VALID,917.163,VALID,0,VALID,99.1991,VALID,-0.0509425,VALID,18.526,VALID,86,VALID,0.877131,